Flag for U.S.A. Weather past 2 weeks in Dallas, Texas, U.S.A.

69 °F

Thunderstorms. Fog.

Feels Like: 69 °F
Forecast: 44 / 68 °F
Wind: 13 mph from Southeast

Location: Dallas Love Field

Current Time: Nov 27, 2015 at 1:19:24 AM

Latest Report: Nov 27, 2015 at 12:02 AM

Visibility: 2 mi

Pressure: 30.07 "Hg

Humidity: 93%

Dew point: 67 °F

Location of DallasLocation

Historic Weather in Dallas — Graph


Dallas temperature yesterday

Maximum temperature yesterday: 72 °F (at 12:53 PM)
Minimum temperature yesterday: 66 °F (at 4:53 AM)
Average temperature yesterday: 68 °F

Past Weeks' High & Low Weather Summary

High75 °F (Nov 25, 2:53 PM)97% (Nov 16, 1:53 PM)30.38 "Hg (Nov 16, 1:53 PM)
Low33 °F (Nov 22, 6:57 AM)23% (Nov 13, 12:53 PM)29.45 "Hg (Nov 17, 3:53 AM)
Average58 °F62%30.09 "Hg
* Reported Nov 12 12:53 AM — Nov 27 12:02 AM, Dallas, Weather by CustomWeather, © 2015

Note: Actual official high and low records may vary slightly from our data, if they occured in-between our weather recording intervals... More about our weather records


Dallas weather history for previous 24 hours

Time TempWeatherWind HumidityBarometerVisibility
12:02 AM
Fri, Nov 27
69 °FThunderstorms. Fog.13 mph93%30.07 "Hg2 mi
10:55 PM
Thu, Nov 26
69 °FHeavy rain. Fog.9 mph93%30.10 "Hg3 mi
10:01 PM69 °FLight rain. Mostly cloudy.12 mph93%30.09 "Hg7 mi
8:53 PM69 °FThunderstorms. Fog.13 mph93%30.08 "Hg6 mi
7:53 PM69 °FStrong thunderstorms. Fog.7 mph93%30.08 "Hg3 mi
6:53 PM69 °FLight rain. Fog.13 mph93%30.08 "Hg3 mi
5:53 PM69 °FLight rain. Fog.13 mph93%30.08 "Hg5 mi
4:53 PM69 °FLight rain. Fog.17 mph90%30.05 "Hg5 mi
3:53 PM69 °FLight rain. Fog.15 mph90%30.04 "Hg6 mi
2:53 PM69 °FLight rain. Fog.14 mph87%30.06 "Hg5 mi
1:53 PM70 °FLight rain. Mostly cloudy.13 mph81%30.07 "Hg9 mi
12:53 PM72 °FMostly cloudy.14 mph73%30.11 "Hg10 mi
11:53 AM71 °FMostly cloudy.18 mph76%30.12 "Hg9 mi
11:00 AM69 °FMostly cloudy.14 mph81%30.17 "Hg10 mi
9:53 AM69 °FOvercast.16 mph81%30.15 "Hg10 mi
8:53 AM68 °FOvercast.16 mph84%30.15 "Hg9 mi
7:53 AM67 °FFog.17 mph87%30.14 "Hg6 mi
6:53 AM67 °FFog.15 mph87%30.12 "Hg6 mi
5:53 AM66 °FLow clouds.16 mph87%30.11 "Hg10 mi
4:53 AM66 °FDrizzle. Overcast.17 mph87%30.10 "Hg10 mi
3:53 AM67 °FOvercast.17 mph81%30.11 "Hg10 mi
2:53 AM67 °FOvercast.14 mph81%30.11 "Hg10 mi
1:53 AM67 °FMostly cloudy.14 mph81%30.09 "Hg10 mi
Weather by CustomWeather, © 2015

See weather overviewHow to use our weather pages